Retour au catalogue

STARLINK-3823

ActifCommunicationsVLEO
NORAD 52336·PAYLOAD·🇺🇸 United States

Lancé Apr 29, 2022 depuis Cape Canaveral Space Force Station

Loading…

Prochains Passages (prochaines 24 heures)

TLE

FraisSource: CelesTrak SupGP

Époque: Sep 15, 2026, 01:47 UTC

1 52336C 22045F   26258.07479167 -.00023834  00000+0 -72339-3 0  2582
2 52336  53.1597  63.3719 0001204  81.9947 358.2835 15.33552980    11

Suivez STARLINK-3823 en temps réel avec AllMySat

Download on the App Store